YAOGAN-43 01H

Last updated on Mon Sep 16 2024 00:02:03 GMT+0000 (Coordinated Universal Time)

1 60465U 24148H 24259.38376198 .00027005 00000+0 11463-2 0 9997 2 60465 34.9980 226.2823 0005153 204.4714 155.5756 15.22158326 4538
UTC large
Height (km)
Speed (km/s)
/
Latitude / Longitude
Inclination (degrees)
Orbital Period (minutes)
Azimuth
Elevation
Range (km)
Doppler Factor

Next 0 passes for location: London (51.5072 / 0.1276)

Sorry there are no passes over London.